CZ-6A DEB

Satellite information

Favourite Embed

Satellite Type and Status

DEBRISIN ORBIT

Key statistics

Satellite CZ-6A DEB at a glance.

Uptime

446

Days in orbit

Revolutions

≈ 14.2

Per day

Orbit

LEO

Low Earth Orbit

Inclination

89.0

Latest

Satellite identification and parameters

Extended collection of information and parameters for CZ-6A DEB.

Object identification

Identified? True

Debris? True

Object name: CZ-6A DEB

International designator: 2024-140LX

Object number (NORAD): 60972

Object ID (CCSDS): 60972

Country: PEOPLES REPUBLIC OF CHINA (PRC)

Current information (Y/N): Y

RCS size: SMALL

Orbital parameters

Period: 101.067 minutes

Inclination: 88.997 deg

SMA: 7187.304 km

Apoapsis: 831.571 km

Periapsis: 786.767 km

RAAN: 300.8738 deg

Eccentricy: 0.00311693

Argument of periapsis: 244.5745 deg

Mean anomaly: 115.2222 deg

Mean motion: 14.24799443 rev/day

Mean motion (dot): 0.00002698 rev/day2

B* drag term: 0.0011459942 1/REarth

Two-line elements (TLE)

Creation date: Oct. 26, 2025, 2:54 a.m.

Reference frame: TEME

Reference center: EARTH

Epoch: Oct. 25, 2025, 12:02 p.m. UTC

TLE line 0: 0 CZ-6A DEB

TLE line 1: 1 60972U 24140LX 25298.50159460 .00002698 00000-0 11460-2 0 9990

TLE line 2: 2 60972 88.9970 300.8738 0031169 244.5745 115.2222 14.24799443 61208

Live tracking on map

Real-time ground track for satellite CZ-6A DEB.

In-orbit conjunctions

A list of the most updated potential collisions computed for object CZ-6A DEB.

Target Orbit TCA Probability of collision Miss distance Type
FENGYUN 1C DEB SSO 2025-08-04 10:06:21 0.0001205362 304.0 (m) DEBRIS
SL-16 DEB LEO 2025-04-07 17:43:16 0.0001239829 414.0 (m) DEBRIS
COSMOS 1275 DEB LEO 2025-01-30 17:18:30 0.0002097219 360.0 (m) DEBRIS
SL-16 R/B LEO 2025-01-25 22:32:20 0.0003123711 976.0 (m) ROCKET BODY
FENGYUN 1C DEB SSO 2024-09-18 01:37:22 0.0002064164 127.0 (m) DEBRIS

Associated space launch

18 Low Earth Orbit communication satellites with Ku, Q and V band payloads for the G60 constellation operated by Shanghai Spacecom Satellite Technology (SSST) with funding backed by the Shanghai local government. Initial constellation will consist of 1296 satellites by 2027 with long term plans to expand it to 12000 satellites.

CZ-6A DEB was lifted into orbit during the mission ‘Long March 6A | G60 Polar Group 01’, on board a Long March 6A space rocket.

The launch took place on Aug. 6, 2024, 6:42 a.m. from Launch Complex 9A.

For more information about the launch, click the button.

Launch to space Long March 6A | G60 Polar Group 01
Long March 6A | G60 Polar Group 01

Agency: N/A

Status: Launch Successful

Launch date: Aug. 6, 2024, 6:42 a.m. UTC

Rocket: Long March 6A

Launch pad: Launch Complex 9A

Location: Taiyuan Satellite Launch Center, People's Republic of China

...

Latest news about this satellite

News about space launch
Brightness of first Chinese broadband constellation satellites alarms astronomers

The first satellites of a Chinese broadband constellation are significantly brighter than those of Western systems, posing a new challenge for astronomers.

News about space launch
Chinese rocket stage breaks up into cloud of more than 700 pieces of space debris

HELSINKI — A Chinese Long March 6A rocket’s upper stage has fragmented into a cloud of over 700 pieces of space debris, adding to concerns about long-term orbital safety. China […]

News about space launch
China's Thousand Sails Megaconstellation Kicks Off with Dangerous Debris Field

China's Thousand Sails Megaconstellation Kicks Off with Dangerous Debris Field


Newsletter sign-up

Weekly statistics, charts and insights to help you stay on top of the space industry.